Location: Pella
(41.4080°N, 92.9160°W)
Time: 03:08:45
(UTC-05:00)

Daily predictions for brighter satellites

Satellite Brightness Start Highest point End
(mag) Time Altitude Azimuth Time Altitude Azimuth Time Altitude Azimuth
IKONOS-2 4.4 00:13:17 76° WSW 00:13:22 76° WSW 00:17:40 10° NNW
Cosmos 1862 Rocket 4.5 00:10:00 10° NNW 00:14:01 37° W 00:14:29 36° WSW
CZ-4B R/B 3.0 00:17:43 30° NE 00:17:43 30° NE 00:20:16 10° N
Cosmos 1125 Rocket 3.4 00:22:54 67° S 00:23:37 82° ESE 00:28:58 10° NNE
Cosmos 1689 Rocket 4.0 00:26:12 30° NE 00:26:12 30° NE 00:28:22 10° N
Cosmos 1048 Rocket 4.1 00:20:29 10° NNW 00:25:51 70° ENE 00:26:43 59° ESE
In-Cosmos 22 Rocket 4.4 00:28:10 52° SE 00:28:53 56° E 00:34:29 10° NNE
Terra 4.0 00:30:16 14° WSW 00:31:32 15° W 00:34:14 10° NW
Cosmos 1626 4.3 00:34:25 19° W 00:35:00 19° WNW 00:37:46 10° NNW
NOSS 2-3 (C) 4.3 00:37:40 50° ESE 00:37:40 50° ESE 00:42:40 10° NE
SeaSat 1 2.8 00:38:15 49° WSW 00:38:24 49° WSW 00:43:12 10° NW
Cosmos 44 Rocket 4.1 00:39:15 40° E 00:39:15 40° E 00:43:31 10° NE
Cosmos 1900 4.2 00:36:04 10° NNW 00:41:05 85° ENE 00:41:20 80° ESE
Cosmos 1869 Rocket 3.8 00:41:46 63° W 00:41:52 63° W 00:46:19 10° N
Cosmos 2227 Rocket 3.2 00:39:31 23° WSW 00:42:33 41° WNW 00:47:55 10° N
CZ-4C R/B 4.2 00:44:21 41° NW 00:44:21 41° NW 00:46:49 10° NNW
ALOS 2 2.5 00:44:00 83° NNW 00:44:00 83° NNW 00:48:14 10° NNW
Cosmos 1733 Rocket 4.1 00:46:04 36° ENE 00:46:04 36° ENE 00:49:46 10° NNE
Cosmos 2333 Rocket 3.3 00:43:35 10° NW 00:48:32 31° WSW 00:49:11 30° WSW
Lacrosse 4 Rocket 1.6 00:46:44 10° NNW 00:50:55 78° N 00:50:55 78° N
Cosmos 2263 Rocket 4.5 00:51:58 10° E 00:52:11 10° E 00:53:07 10° E
SL-16 R/B 2.1 00:49:14 10° NNW 00:54:54 72° WSW 00:55:32 65° SSW
BREEZE-M DEB (TANK) 3.6 00:48:09 10° WNW 00:56:03 49° NNE 00:57:18 33° ENE
NOSS 2-3 (D) 3.8 00:58:18 74° SE 00:58:22 75° ESE 01:03:57 10° NE
Landsat 5 3.6 01:00:18 77° WNW 01:00:18 77° WNW 01:04:37 10° NNW
Cosmos 372 Rocket 3.9 01:02:11 68° SW 01:02:47 78° WNW 01:08:03 10° NNE
ERBS 3.9 01:03:49 34° NNW 01:03:49 34° NNW 01:06:43 10° NNE
ASTEX 1 3.2 00:59:23 10° N 01:04:17 79° W 01:04:30 77° WSW
H-2A R/B 3.1 01:03:09 10° N 01:07:10 50° WNW 01:07:10 50° WNW
Cosmos 158 Rocket 3.8 01:02:06 10° NNW 01:07:27 84° ENE 01:07:53 75° SE
Nadezhda 3 Rocket 4.3 01:01:36 10° N 01:07:41 55° E 01:09:17 44° SE
Cosmos 1610 Rocket 4.4 01:06:43 60° SSE 01:07:53 80° E 01:14:03 10° N
CZ-3 Stage 3 4.1 00:33:03 10° WSW 01:08:17 46° SSW 01:09:53 42° SSE
Cosmos 2074 Rocket 4.1 01:06:47 52° SW 01:08:18 71° W 01:14:37 10° N
Cosmos 2297 Rocket 3.4 01:07:31 23° WSW 01:10:14 36° WNW 01:15:26 10° N
Cosmos 1238 Rocket 4.3 01:09:19 10° NNE 01:12:49 28° ENE 01:12:49 28° ENE
CZ-2C R/B 4.0 01:11:35 35° ESE 01:13:20 45° ENE 01:18:42 10° N
GEOS 3 Rocket 4.5 01:16:46 35° WSW 01:16:46 35° WSW 01:21:01 10° NW
CZ-4C R/B 3.8 01:12:00 10° NNW 01:18:37 43° NE 01:25:52 10° ESE
Okean 1-7 4.4 01:15:51 10° NNW 01:19:09 29° WNW 01:19:09 29° WNW
Cosmos 2219 Rocket 4.4 01:18:01 10° WNW 01:19:42 11° W 01:20:07 11° W
CZ-2C R/B 2.4 01:17:59 10° NNE 01:23:15 73° ESE 01:23:38 69° SE
OceanSat 1 rocket 4.5 01:19:25 10° NNE 01:24:18 85° ESE 01:24:25 83° SE
COSMOS 2455 3.3 01:19:20 10° NW 01:24:59 43° WSW 01:25:14 43° WSW
Cosmos 2251 Rocket 3.3 01:20:28 10° NNW 01:25:49 89° WSW 01:26:18 75° SSE
ATLAS 2AS CENTAUR R/B 3.9 01:19:58 14° WSW 01:26:21 46° NW 01:34:06 10° NNE
Meteor 2-10 Rocket 3.6 01:22:42 10° NNW 01:28:15 75° W 01:28:58 66° SSW
Cosmos 1603 3.6 01:22:40 10° NNW 01:28:23 84° ENE 01:29:23 62° SE
Cosmos 1606 3.8 01:24:54 10° N 01:28:05 38° ENE 01:28:05 38° ENE
Cosmos 2154 Rocket 3.9 01:32:33 58° S 01:33:56 90° ENE 01:40:17 10° N
Cosmos 1674 Rocket 3.6 01:29:45 10° N 01:33:54 77° NNW 01:33:54 77° NNW
Helios 1A Rocket 3.8 01:34:27 10° N 01:38:19 42° WNW 01:38:19 42° WNW
MOS 1-B Rocket 3.8 01:38:15 59° SSW 01:39:07 67° WSW 01:44:43 10° NNW
Meteor 1-10 Rocket 4.3 01:35:20 10° NNW 01:41:15 73° W 01:42:14 60° SSW
Cosmos 1975 Rocket 4.0 01:38:42 10° N 01:42:48 37° ENE 01:43:12 36° E
BREEZE-M DEB (TANK) 4.3 01:20:51 10° SW 01:43:21 89° NNW 01:48:27 10° ENE
Cosmos 1607 4.0 01:39:57 10° NNW 01:46:07 73° NE 01:48:30 39° SE
Cosmos 1892 4.0 01:46:48 33° NW 01:46:48 33° NW 01:49:41 10° N
Cosmos 2237 Rocket 4.5 01:45:58 10° W 01:46:51 10° W 01:46:53 10° W
ATLAS 3B R/B 3.3 01:43:02 10° NW 01:49:09 35° WSW 01:49:27 35° WSW
Cosmos 1908 Rocket 3.5 01:49:24 78° NE 01:49:24 78° NE 01:53:31 10° N
CZ-4B R/B 4.2 01:51:29 12° WNW 01:51:29 12° WNW 01:52:00 10° WNW
Cosmos 921 Rocket 3.0 01:51:16 72° NNE 01:51:16 72° NNE 01:55:05 10° NNE
USA 238 DEB 3.6 01:44:35 10° NW 01:51:36 73° WSW 01:53:37 49° S
USA 238 3.6 01:44:41 10° NW 01:51:42 74° WSW 01:53:45 48° S
Cosmos 1932 4.5 01:46:38 10° NW 01:52:59 65° WSW 01:54:07 55° SSW
Cosmos 44 3.3 01:53:21 71° S 01:53:54 81° ESE 01:59:23 10° NE
Cosmos 1782 3.8 01:56:40 10° NNW 01:59:38 37° WNW 01:59:38 37° WNW
Cosmos 2084 Rocket 3.8 02:01:38 53° NNW 02:01:38 53° NNW 02:05:02 10° NNE
PSLV R/B 4.1 02:01:46 67° NW 02:01:46 67° NW 02:05:24 10° NNW
Cosmos 2341 Rocket 4.1 02:01:00 50° SW 02:02:38 69° W 02:09:02 10° N
Sich 1 Rocket 4.1 02:05:17 49° W 02:05:18 49° WNW 02:09:41 10° N
BREEZE-M TANK 3.1 02:02:33 10° WNW 02:07:47 49° N 02:10:19 10° E
Cosmos 494 Rocket 4.2 02:04:36 10° NNW 02:09:44 53° WSW 02:09:54 53° WSW
Cosmos 1184 Rocket 4.5 02:13:16 29° ENE 02:13:16 29° ENE 02:15:42 10° NNE
RESURS DK-1 3.8 02:14:33 27° ESE 02:14:33 27° ESE 02:17:54 10° NE
USA 234 3.4 02:08:23 10° ESE 02:14:53 72° NE 02:21:24 10° NW
Cosmos 1825 2.5 02:17:09 62° NNW 02:17:09 62° NNW 02:20:27 10° N
ERS-2 4.3 02:16:40 10° NE 02:19:15 18° E 02:19:28 18° E
Cosmos 1959 Rocket 4.4 02:20:04 48° S 02:21:59 84° E 02:28:16 10° N
Cosmos 1408 3.1 02:24:16 54° NW 02:24:16 54° NW 02:27:33 10° N
NOSS 3-2 (C) 4.1 02:17:54 10° NNW 02:25:24 74° NE 02:33:27 10° SE
SL-8 Rocket 4.0 02:24:55 48° SSW 02:26:48 76° W 02:33:10 10° N
Cosmos 2218 Rocket 3.9 02:28:45 47° SSW 02:30:43 85° W 02:37:05 10° N
Cosmos 2263 Rocket 2.1 02:33:39 52° SSW 02:35:08 83° ESE 02:40:52 10° NNE
Meteor 1-27 Rocket 4.4 02:33:24 10° NNW 02:38:48 39° W 02:39:46 36° WSW
Okean 3 4.1 02:36:29 10° NNW 02:40:22 41° W 02:40:22 41° W
SL-08 R/B 4.0 02:41:41 27° SE 02:44:10 54° ENE 02:48:57 10° N
Meteor 1-14 Rocket 4.3 02:42:48 43° S 02:44:53 83° E 02:50:50 10° NNE
NOSS 3-4 (A) 3.5 02:44:56 40° SW 02:47:29 80° NW 02:54:06 10° NNE
NOSS 3-4 (C) 3.5 02:45:02 40° SW 02:47:34 81° NW 02:54:11 10° NNE
Okean 2 Rocket 3.6 02:47:32 43° W 02:48:01 45° WNW 02:52:22 10° N
Cosmos 2366 rocket 4.0 02:46:32 43° SSW 02:48:37 71° W 02:54:48 10° N
Cosmos 1371 Rocket 4.0 02:47:23 49° S 02:48:53 84° ESE 02:54:16 10° NNE
Cosmos 2056 Rocket 3.7 02:48:43 42° SSE 02:50:20 63° ESE 02:55:32 10° NNE
NOSS 3-2 (A) 3.9 02:42:52 10° NW 02:50:22 72° WSW 02:56:21 19° SSE
CZ-2C R/B 4.4 02:52:39 26° WSW 02:53:17 26° W 02:58:02 10° NW
SL-24 R/B 4.5 02:54:49 56° S 02:55:44 85° WSW 03:00:21 10° NNW
JB-3 4.3 02:52:19 10° N 02:56:09 64° WNW 02:56:24 61° W
Meteor 2-19 Rocket 4.4 02:53:48 38° S 02:56:21 87° E 03:02:33 10° N
Tiangong 1 3.5 02:59:17 15° ESE 02:59:17 15° ESE 02:59:57 10° ESE
Cosmos 407 Rocket 4.2 02:56:03 10° N 03:01:04 50° ENE 03:05:49 11° SE
AQUA 3.9 02:59:39 10° NNE 03:04:25 69° ESE 03:06:04 40° S
Cosmos 1943 3.7 02:59:22 10° NW 03:04:34 37° WSW 03:05:22 35° SW
IRS-P3 4.1 03:00:56 10° NNE 03:06:18 80° WNW 03:08:19 40° SSW
CZ-4C R/B 3.1 03:00:29 10° NW 03:07:23 49° WSW 03:11:13 28° S
Landsat 4 4.1 03:08:51 45° W 03:08:51 45° W 03:12:22 10° NNW
Meteor 2-8 Rocket 4.5 03:02:53 10° NNW 03:08:54 64° W 03:11:28 35° SSW
Cosmos 1727 Rocket 4.1 03:02:53 10° NNW 03:08:57 56° W 03:11:24 35° SSW
SL-27 R/B 4.0 03:07:44 10° N 03:11:08 36° ENE 03:13:48 15° SE
Meteor 1-18 Rocket 4.2 03:08:10 10° N 03:13:50 85° W 03:16:57 28° S
Gbstr 26 Del rocket 4.2 03:16:43 23° SE 03:16:59 23° SE 03:20:02 10° E
USA 161 3.1 03:16:07 25° ESE 03:17:00 31° ENE 03:19:37 10° N
Cosmos 909 Rocket 4.2 03:16:04 32° SW 03:19:17 83° WNW 03:26:40 10° NNE
H-2A R/B 4.2 03:18:33 25° S 03:19:42 26° S 03:36:39 10° SE
Cosmos 1867 3.6 03:15:55 10° NW 03:21:16 55° WSW 03:23:54 29° S
Cosmos 1242 Rocket 3.1 03:18:07 10° NNW 03:21:11 39° W 03:21:11 39° W
Resurs 1-4 Rocket 3.6 03:17:28 10° NE 03:22:09 31° E 03:26:23 12° SSE
Cosmos 1300 Rocket 3.5 03:23:44 36° S 03:25:26 79° E 03:29:48 10° N
BREEZE-M DEB (TANK) 3.7 03:20:29 10° WNW 03:27:48 38° SW 03:28:18 36° SSW
CBERS 1 LM4 rocket 4.3 03:27:09 10° NNE 03:32:09 85° WNW 03:34:28 31° SSW
Cosmos 1536 Rocket 4.1 03:28:20 10° NNW 03:32:27 41° W 03:33:31 35° SW
Meteor 1-11 Rocket 4.3 03:35:08 16° S 03:39:43 58° E 03:45:34 10° NNE
Cosmos 1633 4.5 03:37:17 12° SE 03:40:00 25° E 03:43:02 10° NNE
EO 1 Del DPAF 4.3 03:36:48 10° SE 03:40:32 46° ENE 03:44:17 10° N
Cosmos 1934 Rocket 4.0 03:39:43 19° S 03:44:19 80° E 03:50:31 10° N
SME Rocket 4.1 03:41:41 10° SE 03:45:14 41° ENE 03:49:02 10° N
NPP 4.3 03:40:30 10° N 03:45:34 43° WNW 03:48:22 24° SW
Meteor 1-13 Rocket 4.3 03:40:03 10° N 03:45:43 80° E 03:51:30 10° SSE
Okean 1 3.4 03:42:50 10° NNW 03:46:45 56° W 03:48:22 31° SSW
Meteor 1-20 Rocket 4.5 03:43:57 26° SSW 03:47:12 59° WNW 03:52:58 10° N
Cosmos 1812 3.1 03:44:51 10° NNW 03:48:34 44° W 03:49:48 32° SW
ADEOS 3.6 03:44:00 10° N 03:49:12 67° WNW 03:52:16 25° SSW
Abrixas rocket 2.6 03:48:12 29° W 03:49:41 60° NNW 03:53:00 10° ENE
Okean 1-7 Rocket 3.6 03:45:27 10° NNW 03:50:00 70° W 03:52:54 22° S
SL-16 R/B 2.7 03:46:04 10° SSE 03:52:17 78° ENE 03:58:32 10° NNW
RESURS DK-1 3.9 03:50:29 19° W 03:52:22 26° NW 03:55:54 10° N
Cosmos 1400 Rocket 4.4 03:49:40 10° SSE 03:53:04 30° E 03:56:31 10° NNE
ERS-2 3.3 03:49:49 10° N 03:53:05 29° WNW 03:54:19 24° WSW
ARIANE 5 R/B 2.5 03:50:04 10° NNE 03:55:04 84° ESE 03:58:39 20° S
Cosmos 1452 Rocket 3.5 03:53:19 24° SSW 03:56:31 78° WNW 04:01:48 10° NNE
USA 234 3.8 03:52:28 10° S 03:58:11 32° SW 04:03:56 10° WNW
COSMOS 2487 4.0 03:55:40 10° N 03:59:04 37° ENE 04:02:28 10° SE
Cosmos 489 Rocket 4.4 03:54:08 10° NNW 04:00:24 79° WSW 04:06:35 10° SSE
Okean 1 Rocket 3.5 04:00:25 25° SW 04:02:38 45° WNW 04:06:56 10° N
Okean O Rocket 3.4 03:59:16 10° NE 04:02:59 27° E 04:06:40 10° SSE
Cosmos 1420 Rocket 4.2 04:05:25 16° S 04:09:42 72° ESE 04:14:59 10° NNE
CZ-2D R/B 2.2 04:05:25 10° NNE 04:10:53 84° ESE 04:15:47 13° SSW
GP-B 4.3 04:08:38 10° NNW 04:12:24 27° W 04:14:34 19° WSW
Cosmos 1605 Rocket 4.0 04:08:49 13° S 04:14:23 85° W 04:20:41 10° N
ATLAS 2A CENTAUR R/B 4.2 04:09:15 17° SW 04:15:05 36° S 04:49:06 10° ESE
Cosmos 1821 Rocket 4.4 04:11:16 18° SSW 04:15:54 50° WNW 04:22:07 10° N
Cosmos 1023 Rocket 4.4 04:11:42 10° NNW 04:16:50 90° ENE 04:21:54 10° SSE
Okean 2 4.2 04:12:52 10° N 04:16:52 50° E 04:20:51 10° SSE
Cosmos 1315 Rocket 4.3 04:13:33 10° SSE 04:17:17 35° E 04:21:01 10° NNE
Cosmos 1844 Rocket 2.8 04:13:11 18° SW 04:17:23 67° WNW 04:23:03 10° NNE
Cosmos 2123 Rocket 4.0 04:11:10 10° NNW 04:17:28 68° W 04:23:43 10° S
CENTAUR R/B 3.1 04:10:28 10° NW 04:18:20 82° WSW 04:26:39 10° SSE
Cosmos 1844 3.7 04:14:16 17° SSW 04:18:47 87° WNW 04:24:34 10° NNE
Cosmos 2263 Rocket 4.2 04:16:11 10° W 04:19:48 17° NW 04:23:26 10° N
CZ-2D R/B 4.0 04:16:19 10° NNE 04:20:15 53° E 04:24:11 10° S
COSMOS 2406 3.9 04:18:48 10° NW 04:23:56 34° WSW 04:29:02 10° SSW
Meteor 2-15 Rocket 4.4 04:19:29 10° NNW 04:25:38 72° W 04:31:44 10° S
Cosmos 1455 Rocket 3.5 04:25:15 10° S 04:29:39 66° E 04:34:05 10° NNE
Cosmos 1461 3.5 04:26:05 13° SSW 04:30:14 61° ESE 04:34:49 10° NE
Tiangong 1 2.2 04:31:29 15° WSW 04:33:15 24° SSW 04:35:47 10° SSE
Cosmos 2278 Rocket 2.3 04:28:32 12° SSW 04:33:53 85° ESE 04:39:35 10° NNE
UNK 4.1 04:30:36 10° S 04:35:00 45° W 04:39:27 10° NNW
Cosmos 1140 Rocket 3.5 04:31:16 10° NNW 04:36:20 60° WSW 04:41:22 10° S
Cosmos 1025 Rocket 3.5 04:34:16 10° NNW 04:38:19 42° W 04:42:22 10° SSW
UNK 3.2 04:32:04 12° SW 04:39:21 81° SE 04:42:10 10° ENE
Cosmos 1850 Rocket 4.0 04:34:29 10° NNW 04:39:43 75° WSW 04:44:58 10° S
Cosmos 1741 Rocket 4.0 04:35:01 10° NNW 04:40:18 76° WSW 04:45:32 10° SSE
MOZ.5/SAFIR/RUBIN 5/SL-8 4.5 04:35:51 10° SSE 04:40:33 60° ENE 04:45:16 10° N
Cosmos 1536 3.5 04:39:54 13° SW 04:43:17 39° WNW 04:47:08 10° N
ATLAS 5 CENTAUR R/B 2.8 04:39:25 10° NNW 04:45:23 69° NE 04:51:45 10° SE
SL-27 R/B 4.5 04:44:14 10° WNW 04:46:05 13° W 04:47:30 11° WSW
NOSS 2-2 (D) 3.8 04:43:08 12° SW 04:46:54 65° NW 04:51:43 10° NNE
CZ-4B R/B 3.6 04:43:24 10° NNE 04:49:04 69° ESE 04:54:42 10° S
Meteor 2-4 Rocket 3.8 04:45:35 10° NNW 04:50:50 53° W 04:56:01 10° S
Cosmos 2082 Rocket 3.3 04:46:46 10° NNW 04:52:21 51° ENE 04:57:52 10° SE
APEX 4.5 04:50:11 10° SSE 04:52:36 26° ESE 04:55:19 10° NE
Cosmos 2173 Rocket 4.2 04:46:39 10° S 04:52:42 77° E 04:58:51 10° N
Cosmos 1802 Rocket 4.4 04:47:42 10° S 04:53:47 68° E 04:59:53 10° NNE
UNKNOWN OBJECT B 3.5 04:50:30 10° N 04:54:21 41° WNW 04:58:12 10° SW
Cosmos 1544 Rocket 4.0 04:50:42 10° SSW 04:54:58 46° WNW 04:59:13 10° N
OTV 4 2.3 04:53:58 11° SW 04:55:21 14° SSW 04:56:58 10° S
PSLV R/B 4.0 04:54:01 10° N 04:58:11 73° WNW 05:02:18 10° SSW
NOSS 2-2 (C) 4.2 04:57:27 10° WSW 05:01:28 47° NW 05:06:12 10° NNE
Resurs 1-4 Rocket 3.0 04:57:13 10° N 05:01:58 34° WNW 05:06:41 10° SW
Gbstr 26 Del rocket 3.3 04:59:51 10° WSW 05:03:36 49° NNW 05:07:15 10° NE
IRS-1C Rocket 4.3 05:01:01 10° N 05:06:13 61° WNW 05:11:22 10° SSW
Cosmos 2100 Rocket 4.1 05:01:45 10° SSW 05:07:58 75° W 05:14:18 10° N
Cosmos 1459 Rocket 4.1 05:04:47 10° SSW 05:11:09 76° W 05:17:29 10° N
